Location: *
(45.0500°N, 12.0500°E)
Time: 17:40:44
(UTC+00:00)

Landsat 7 - Pass Details

Date: 09 April 2020
Orbit: 701 x 703 km, 98.1° (Epoch: 02 June)

Event Time Altitude Azimuth Distance (km) Brightness Sun altitude
Exits shadow 19:47:16 36° 90° (E) 1,103 4.4 -19.7°
Maximum altitude 19:47:58 39° 69° (ENE) 1,062 4.4 -19.8°
Drops below altitude 10° 19:52:22 10° 2° (N) 2,180 6.8 -20.5°
Sets 19:54:45 0° 354° (N) 3,103 7.8 -20.8°
